This is the latest recevied weather packets stored in our database for station/object WK7G. If no packets are shown the sender has not sent any weather packets the latest 10 day(s).
| Time | Temp. | Humidity | Pressure | Rain* | Wind** | Luminosity | Snow |
|---|---|---|---|---|---|---|---|
| 1777686807 | 14.44° C | 32% | 1013.4 hPa | 0 mm | - | 21 W/m² | - |
| 1777686504 | 14.44° C | 33% | 1013.4 hPa | 0 mm | - | 24 W/m² | - |
| 1777686201 | 15° C | 33% | 1013.1 hPa | 0 mm | - | 26 W/m² | - |
| 1777685897 | 15.56° C | 30% | 1013.1 hPa | 0 mm | - | 28 W/m² | - |
| 1777685593 | 15.56° C | 27% | 1013.3 hPa | 0 mm | - | 30 W/m² | - |
| 1777685289 | 15.56° C | 30% | 1013.1 hPa | 0 mm | - | 37 W/m² | - |
| 1777684987 | 15.56° C | 29% | 1013 hPa | 0 mm | - | 34 W/m² | - |
| 1777684684 | 16.11° C | 25% | 1013 hPa | 0 mm | - | 43 W/m² | - |
| 1777684380 | 16.11° C | 25% | 1013.3 hPa | 0 mm | - | 65 W/m² | - |
| 1777684078 | 15.56° C | 26% | 1013.3 hPa | 0 mm | - | 105 W/m² | - |
| 1777683774 | 16.11° C | 30% | 1013.1 hPa | 0 mm | - | 120 W/m² | - |
| 1777683471 | 15.56° C | 27% | 1013.4 hPa | 0 mm | - | 40 W/m² | - |
| 1777683169 | 16.67° C | 25% | 1013 hPa | 0 mm | - | 150 W/m² | - |
| 1777682865 | 16.11° C | 25% | 1012.9 hPa | 0 mm | - | 42 W/m² | - |
| 1777682562 | 16.67° C | 23% | 1013.1 hPa | 0 mm | - | 184 W/m² | - |
| 1777682260 | 16.67° C | 26% | 1013.1 hPa | 0 mm | - | 45 W/m² | - |
| 1777681957 | 16.67° C | 26% | 1013.1 hPa | 0 mm | - | 225 W/m² | - |
| 1777681652 | 16.67° C | 25% | 1013.1 hPa | 0 mm | - | 244 W/m² | - |
| 1777681350 | 16.67° C | 25% | 1013.1 hPa | 0 mm | - | 262 W/m² | - |
| 1777681047 | 16.67° C | 24% | 1013.1 hPa | 0 mm | - | 287 W/m² | - |
| 1777680745 | 16.67° C | 25% | 1013.3 hPa | 0 mm | - | 271 W/m² | - |
| 1777680442 | 16.67° C | 25% | 1013 hPa | 0 mm | - | 318 W/m² | - |
| 1777680140 | 17.22° C | 28% | 1013.4 hPa | 0 mm | - | 338 W/m² | - |
| 1777679836 | 17.22° C | 23% | 1013.3 hPa | 0 mm | - | 354 W/m² | - |
| 1777679532 | 17.22° C | 23% | 1013.3 hPa | 0 mm | - | 367 W/m² | - |
* Rain latest hour (hover to see other rain measurements)
** Current wind speed in m/s (hover to see current wind gust speed)